TimeEDT,TemperatureF,Dew PointF,Humidity,Sea Level PressureIn,VisibilityMPH,Wind Direction,Wind SpeedMPH,Gust SpeedMPH,PrecipitationIn,Events,Conditions,WindDirDegrees,DateUTC
12:04 AM,64.4,62.6,94,30.06,5.0,Calm,Calm,-,0.01,,Overcast,0,2012-10-05 04:04:00
12:52 AM,64.9,62.1,90,30.04,6.0,Calm,Calm,-,0.01,,Overcast,0,2012-10-05 04:52:00
1:52 AM,64.0,61.0,90,30.04,8.0,Calm,Calm,-,N/A,,Overcast,0,2012-10-05 05:52:00
2:28 AM,62.6,60.8,94,30.04,1.8,Calm,Calm,-,N/A,,Overcast,0,2012-10-05 06:28:00
2:42 AM,62.6,60.8,94,30.04,0.5,WSW,3.5,-,N/A,Fog,Fog,240,2012-10-05 06:42:00
2:52 AM,63.0,60.1,90,30.03,0.2,Calm,Calm,-,N/A,Fog,Fog,0,2012-10-05 06:52:00
4:42 AM,60.8,59.0,94,30.03,0.2,Calm,Calm,-,N/A,Fog,Fog,0,2012-10-05 08:42:00
4:52 AM,60.1,57.9,93,30.03,0.2,Calm,Calm,-,N/A,Fog,Fog,0,2012-10-05 08:52:00
5:13 AM,60.8,57.2,88,30.03,0.2,Calm,Calm,-,N/A,Fog,Fog,0,2012-10-05 09:13:00
5:33 AM,59.0,57.2,94,30.04,0.5,Calm,Calm,-,N/A,Fog,Fog,0,2012-10-05 09:33:00
5:52 AM,59.0,57.0,93,30.04,0.5,Calm,Calm,-,N/A,Fog,Fog,0,2012-10-05 09:52:00
6:01 AM,57.2,55.4,94,30.04,0.2,Calm,Calm,-,N/A,Fog,Fog,0,2012-10-05 10:01:00
6:32 AM,57.2,55.4,94,30.05,0.2,Calm,Calm,-,N/A,Fog,Fog,0,2012-10-05 10:32:00
6:52 AM,57.0,55.0,93,30.05,0.2,Calm,Calm,-,N/A,Fog,Fog,0,2012-10-05 10:52:00
7:52 AM,57.0,55.0,93,30.06,0.2,Calm,Calm,-,N/A,Fog,Fog,0,2012-10-05 11:52:00
8:31 AM,57.2,55.4,94,30.05,0.5,Calm,Calm,-,N/A,Fog,Fog,0,2012-10-05 12:31:00
8:50 AM,59.0,55.4,88,30.05,1.8,Calm,Calm,-,N/A,,Overcast,0,2012-10-05 12:50:00
8:52 AM,59.0,55.9,90,30.05,1.2,Calm,Calm,-,N/A,,Overcast,0,2012-10-05 12:52:00
9:02 AM,60.8,57.2,88,30.05,0.5,Calm,Calm,-,N/A,Fog,Fog,0,2012-10-05 13:02:00
9:10 AM,60.8,57.2,88,30.05,2.0,Calm,Calm,-,N/A,,Overcast,0,2012-10-05 13:10:00
9:18 AM,60.8,57.2,88,30.05,4.0,Calm,Calm,-,N/A,,Overcast,0,2012-10-05 13:18:00
9:52 AM,63.0,59.0,87,30.05,10.0,Calm,Calm,-,N/A,,Partly Cloudy,0,2012-10-05 13:52:00
11:52 AM,73.9,55.0,52,30.03,10.0,West,5.8,-,N/A,,Clear,280,2012-10-05 15:52:00
12:52 PM,75.0,53.1,46,30.00,10.0,West,6.9,-,N/A,,Clear,280,2012-10-05 16:52:00
1:52 PM,77.0,52.0,42,29.99,10.0,NW,9.2,-,N/A,,Clear,320,2012-10-05 17:52:00
3:52 PM,77.0,52.0,42,29.95,10.0,WNW,5.8,-,N/A,,Clear,290,2012-10-05 19:52:00
4:52 PM,75.9,54.0,46,29.95,10.0,Variable,4.6,-,N/A,,Clear,0,2012-10-05 20:52:00
5:52 PM,71.1,60.1,68,29.95,10.0,Calm,Calm,-,N/A,,Clear,0,2012-10-05 21:52:00
6:52 PM,66.0,60.1,81,29.96,10.0,Calm,Calm,-,N/A,,Clear,0,2012-10-05 22:52:00
7:52 PM,64.0,60.1,87,29.96,10.0,Calm,Calm,-,N/A,,Clear,0,2012-10-05 23:52:00
8:52 PM,61.0,57.0,87,29.97,10.0,Calm,Calm,-,N/A,,Clear,0,2012-10-06 00:52:00
9:52 PM,60.1,57.0,90,29.96,6.0,Calm,Calm,-,N/A,,Clear,0,2012-10-06 01:52:00
10:52 PM,59.0,55.9,90,29.95,7.0,Calm,Calm,-,N/A,,Clear,0,2012-10-06 02:52:00
11:24 PM,59.0,55.4,88,29.95,7.0,Calm,Calm,-,N/A,,Partly Cloudy,0,2012-10-06 03:24:00
11:52 PM,57.9,55.0,90,29.94,7.0,NE,3.5,-,N/A,,Clear,50,2012-10-06 03:52:00